アトラス彗星

C/2024 X2 ( ATLAS )

English version
Home page
Updated on August 30, 2025

---------------------------------------------------------------------

・ プロフィール

発見日 2024年12月12日
発見光度 18.8等
発見者 Asteroid Terrestrial-Impact Last Alert System (ATLAS) search program

・ 写真集

・ 軌道要素

Epoch 2025 May 5.0 TT = JDT 2460800.5
T 2025 July 7.86327 TT                                  Pike
q   3.6763147            (2000.0)            P               Q
z  +0.0197956      Peri.  315.77818     -0.57889464     -0.17604041
 +/-0.0000068      Node   122.52308     +0.70309633     +0.38674027
e   0.9272252      Incl.  109.22105     -0.41296071     +0.90523021
From 326 observations 2024 Dec. 12-2025 June 26, mean residual 0".4.

・ 光度変化

        m1 = 8.8 + 5 logΔ + 10.0 log r

---------------------------------------------------------------------

軌道要素はM.P.E.C. 2025-N64に掲載されたものです。
光度グラフはComet for Windowsで作成したものです。

---------------------------------------------------------------------

Copyright(C) Seiichi Yoshida (comet@aerith.net). All rights reserved.